This is the latest recevied weather packets stored in our database for station/object EA3DJ-10. If no packets are shown the sender has not sent any weather packets the latest 10 day(s).
| Time | Temp. | Humidity | Pressure | Rain* | Wind** | Luminosity | Snow |
|---|---|---|---|---|---|---|---|
| 1788272415 | 24.44° C | 48% | 1021 hPa | - | - | - | - |
| 1788271214 | 24.44° C | 44% | 1020.6 hPa | - | - | - | - |
| 1788270014 | 25.56° C | 48% | 1021 hPa | - | - | - | - |
| 1788268813 | 27.22° C | 47% | 1021.2 hPa | - | - | - | - |
| 1788267613 | 27.22° C | 46% | 1021.6 hPa | - | - | - | - |
| 1788266413 | 27.22° C | 46% | 1021.5 hPa | - | - | - | - |
| 1788265213 | 27.22° C | 46% | 1021.8 hPa | - | - | - | - |
| 1788264026 | 27.22° C | 45% | 1021.9 hPa | - | - | - | - |
| 1788262813 | 27.22° C | 44% | 1021.9 hPa | - | - | - | - |
| 1788261612 | 26.67° C | 43% | 1022 hPa | - | - | - | - |
| 1788260412 | 26.67° C | 42% | 1022.2 hPa | - | - | - | - |
| 1788259212 | 24.44° C | 40% | 1022.3 hPa | - | - | - | - |
| 1788258012 | 26.11° C | 39% | 1022.4 hPa | - | - | - | - |
| 1788256812 | 28.89° C | 36% | 1022.3 hPa | - | - | - | - |
| 1788255612 | 29.44° C | 44% | 1022.2 hPa | - | - | - | - |
| 1788254412 | 28.33° C | 51% | 1021.9 hPa | - | - | - | - |
| 1788253211 | 28.33° C | 51% | 1021.7 hPa | - | - | - | - |
| 1788252011 | 28.33° C | 52% | 1021.5 hPa | - | - | - | - |
| 1788250811 | 28.33° C | 51% | 1021.3 hPa | - | - | - | - |
| 1788249611 | 27.78° C | 53% | 1021.3 hPa | - | - | - | - |
| 1788248411 | 27.78° C | 53% | 1021.2 hPa | - | - | - | - |
| 1788247211 | 27.78° C | 53% | 1021.3 hPa | - | - | - | - |
| 1788246011 | 27.78° C | 54% | 1021.2 hPa | - | - | - | - |
| 1788244811 | 27.78° C | 54% | 1021.4 hPa | - | - | - | - |
| 1788243611 | 27.78° C | 54% | 1021.3 hPa | - | - | - | - |
* Rain since midnight (hover to see other rain measurements)
** Current wind speed in m/s (hover to see current wind gust speed)